Regional Weather Roundup
Issued by NWS

Home | Current Version | Previous Version | Graphics & Text | Print | Product List | Glossary On
Versions: 1 2 3 4 5 6 7 8 9 10 11 12 13 14 15 16 17 18 19 20 21 22 23 24 25 26 27 28 29 30 31 32 33 34 35 36 37 38 39 40 41 42 43 44 45 46 47 48
000
ASUS45 KBOU 010507
RWRCO

WEATHER ROUNDUP FOR COLORADO
NATIONAL WEATHER SERVICE DENVER/BOULDER CO
1000 PM MST SAT JAN 31 2015

NOTE: "FAIR" INDICATES FEW OR NO CLOUDS BELOW 12000 FEET WITH NO
SIGNIFICANT WEATHER AND/OR OBSTRUCTIONS TO VISIBILITY.

COZ001>005-013-030-031-010600-
...NORTHWEST COLORADO...

CITY           SKY/WX    TMP DP  RH WIND       PRES   REMARKS
CRAIG          CLEAR     29  17  61 W12       29.98R WCI  19
HAYDEN         CLEAR     27  18  69 W13       29.96R WCI  16
MEEKER         PTCLDY    29  26  89 CALM      30.01R
MOUNT WERNER   NOT AVBL
STEAMBOAT SPGS CLEAR     26  22  87 SW9       29.94R WCI  16
WALDEN         CLOUDY    23  19  86 NW12      29.89R WCI  12
$$

COZ006>008-011-010600-
...WEST CENTRAL VALLEYS...

CITY           SKY/WX    TMP DP  RH WIND       PRES   REMARKS
GRAND JUNCTION CLEAR     32  31  96 CALM      30.01S
MONTROSE       MOCLDY    37  34  89 W5        30.04R
EAGLE          CLEAR     30  28  93 SW5       29.99R WCI  25
RIFLE          CLEAR     34  27  75 CALM      30.01R
DELTA          PTCLDY    36  34  95 E3        30.02S
NUCLA          PTCLDY    34  34 100 N3        30.07R
$$

COZ017>023-064>068-010600-
...SOUTHWEST COLORADO...

CITY           SKY/WX    TMP DP  RH WIND       PRES   REMARKS
DURANGO        FOG       33  33 100 CALM      29.95R VSB 1/2
CORTEZ         CLEAR     33  30  88 CALM      29.99R
PAGOSA SPRINGS CLOUDY    33  33 100 CALM      29.95S FOG
TELLURIDE      MOCLDY    27  27 100 W7        30.03R WCI  19
WOLF CREEK PAS PTCLDY    16  10  79 N14G28    29.99S WCI   1
$$

COZ009-010-012-014-032>034-037-058>063-010600-
...CENTRAL COLORADO...

CITY           SKY/WX    TMP DP  RH WIND       PRES   REMARKS
ASPEN          CLOUDY    28  25  88 CALM      29.97S
BUENA VISTA    PTCLDY    32  17  53 W9        29.89R WCI  24
COPPER MTN     MOCLDY    19  12  73 W24G36    29.89S HAZE    WCI   2
BERTHOUD PASS  LGT SNOW  10   3  72 NW44G52   29.80R WCI -15
COTTONWOOD PAS PTCLDY    28  18  64 N6        29.89S WCI  22
GUNNISON       PTCLDY    30  23  74 W9        29.99R WCI  22
KREMMLING      PTCLDY    32  14  47 W10G24    29.94R WCI  24
LEADVILLE      CLOUDY    21  13  71 NW14G25   29.91R WCI   8
MONARCH PASS   CLOUDY    18  14  86 MISG      30.02F
SALIDA         PTCLDY    30  24  79 CALM      29.95S
SUNLIGHT       CLOUDY   N/A N/A N/A CALM        N/A
WILKERSON PASS MOCLDY    18  12  79 NW8G18    29.90S WCI   7
$$

COZ069>075-010600-
...SAN LUIS VALLEY/SANGRE DE CRISTO MOUNTAINS...

CITY           SKY/WX    TMP DP  RH WIND       PRES   REMARKS
ALAMOSA        CLOUDY    30  29  96 CALM      29.91R
LA VETA PASS   FOG       25  23  93 MISG      29.89R VSB 3/4
SAGUACHE       MOCLDY    32  23  69 NW17      29.92R WCI  21
$$

COZ035-036-038>040-010600-
...NORTHERN COLORADO FRONT RANGE...

CITY           SKY/WX    TMP DP  RH WIND       PRES   REMARKS
DENVER INTL AP LGT SNOW  32  31  96 N6        29.89S FOG     WCI  26
DMNS CITY PARK   N/A     34  30  86 N9        29.91R WCI  26
AURORA         LGT SNOW  31  31 100 NE7       29.89R FOG     WCI  25
FRONT RANGE AP NOT AVBL
ERIE MUNI ARPT LGT SNOW  32  30  94 N3        29.92R
BOULDER MUN AP LGT SNOW  32  30  93 N3        29.91R
CENTENNIAL     FLURRIES  31  28  89 E3        29.88R
BROOMFIELD     FLURRIES  34  30  86 N5        29.90R WCI  30
FORT COLLINS   MOCLDY    30  27  86 N10       29.93S WCI  21
LONGMONT       LGT SNOW  35  31  87 NE15      29.94R WCI  25
$$

COZ041-046-047-076>085-087-088-010600-
...PIKES PEAK/PALMER DIVIDE AND SOUTHERN FOOTHILLS...

CITY           SKY/WX    TMP DP  RH WIND       PRES   REMARKS
COLO. SPRINGS  PTCLDY    33  27  78 N10       29.85S WCI  25
A. F. ACADEMY  PTCLDY    31  27  86 N16       29.84R WCI  20
ELLICOTT       CLEAR    N/A N/A N/A N5        29.85R
FALCON         CLEAR     31  27  86 N13G21    29.85S WCI  21
FORT CARSON    PTCLDY    32  30  90 CALM      29.84R
LIMON          FOG       30  30 100 N18       29.87R VSB 3/4 WCI  18
MONUMENT HILL  CLOUDY    30  27  86 N7        29.86R WCI  23
TRINIDAD       CLOUDY    35  32  88 NW3       29.87R
$$

COZ042>045-048>051-090-091-010600-
...NORTHEAST COLORADO...

CITY           SKY/WX    TMP DP  RH WIND       PRES   REMARKS
GREELEY ARPT   CLOUDY    34  25  69 N17       29.91R WCI  23
AKRON          CLOUDY    28  27  96 N17       29.88R FOG     WCI  16
BURLINGTON     CLOUDY    32  30  92 N14       29.83R WCI  22
WRAY           FLURRIES  27  26  96 N16G23    29.90R WCI  15
STERLING       CLOUDY    28  27  93 NE15G21   29.92R WCI  17
HOLYOKE        NOT AVBL
FORT MORGAN    CLOUDY    30  27  89 N13       29.94R WCI  20
$$

COZ086-089-092>099-010600-
...SOUTHEAST COLORADO...

CITY           SKY/WX    TMP DP  RH WIND       PRES   REMARKS
PUEBLO         CLEAR     33  32  96 CALM      29.86R FOG
LA JUNTA       CLOUDY    38  35  89 W8        29.85R
LAMAR          CLOUDY    37  36  96 W3        29.83R
SPRINGFIELD      N/A     36  35  96 NW9       29.83R
$$


USA.gov is the U.S. government's official web portal to all federal, state and local government web resources and services.